AirNav   Everest Fuels
 
 1066 users online  

UT33 Kutv Channel Two Heliport
Salt Lake City, Utah, USA

GOING TO SALT LAKE CITY?


FAA INFORMATION EFFECTIVE 01 DECEMBER 2022

Location

FAA Identifier: UT33
Lat/Long: 40-43-28.8060N 111-58-34.7800W
40-43.480100N 111-58.579667W
40.7246683,-111.9763278
(estimated)
Elevation: 4240 ft. / 1292 m (estimated)
Variation: 15E (1985)
From city: 6 miles SW of SALT LAKE CITY, UT
Time zone: UTC -7 (UTC -6 during Daylight Saving Time)
Zip code: 84120

Heliport Operations

Heliport use: Private use. Permission required prior to landing
Activation date: 05/1979
Control tower: no
ARTCC: SALT LAKE CITY CENTER
FSS: CEDAR CITY FLIGHT SERVICE STATION
Attendance: CONTINUOUS
Wind indicator: lighted
Segmented circle: no
Lights: SS-SR

Heliport Communications

WX ASOS at SLC (4 nm N): 125.625 (801-359-4103)
WX AWOS-3 at U42 (6 nm S): 134.425 (801-562-0271)
WX AWOS-3 at TVY (18 nm W): 119.725 (435-882-6648)

Nearby radio navigation aids

VOR radial/distance  VOR name  Freq  Var
TCHr162/7.5WASATCH VORTAC116.8016E
FFUr341/27.0FAIRFIELD VORTAC116.6016E
OGDr156/30.5OGDEN VORTAC115.7014E
PVUr324/32.7PROVO VOR/DME108.4015E

Heliport Services

Fuel available: A

Runway Information

Helipad H1

Dimensions: 100 x 100 ft. / 30 x 30 m
Surface: concrete
Runway edge lights: medium intensity
Latitude: 40-43.480100N
Longitude: 111-58.579667W
Elevation: 4240.0 ft.
Traffic pattern: leftleft

Heliport Ownership and Management from official FAA records

Ownership: Privately-owned
Owner: WELLS FARGO CENTER (FACILITY)
WASATCH COMMERCIAL MANAGEMENT, 299 SOUTH MAIN #355
SALT LAKE CITY, UT 84111
Phone 501-961-1078
Manager: JENNY NIELSON
299 SOUTH MAIN #355
SALT LAKE CITY, UT 84111
Phone 501-961-1078

Heliport Operational Statistics

Aircraft based on the field: 1
Helicopters: 1
    

Additional Remarks

FOR CD CTC SALT LAKE CITY APCH AT 801-325-9670.

Instrument Procedures

There are no published instrument procedures at UT33.

Some nearby airports with instrument procedures:

KSLC - Salt Lake City International Airport (4 nm N)
U42 - South Valley Regional Airport (6 nm S)
KTVY - Bolinder Field-Tooele Valley Airport (18 nm W)
KHIF - Hill Air Force Base (24 nm N)
KOGD - Ogden-Hinckley Airport (28 nm N)
 
Loc | Ops | Rwys | IFR | FBO | Links
Com | Nav | Svcs | Stats | Notes
Area around UT33 (Kutv Channel Two Heliport)
 
Road maps at: MapQuest Bing Google
 
Aerial photo
No photo
 
Sectional chart

 
Airport distance calculator
Flying to Kutv Channel Two Heliport? Find the distance to fly.

From to UT33

Sunrise and sunset
Times for 06-Dec-2022
 Local
(UTC-7)
 Zulu
(UTC)
Morning civil twilight07:0814:08
Sunrise07:3914:39
Sunset16:5923:59
Evening civil twilight17:3000:30

Current date and time
Zulu (UTC)  07-Dec-2022 03:31:01
Local (UTC-7)  06-Dec-2022 20:31:01
 
METAR
KSLC 
4nm N 
070254Z 34004KT 7SM BKN009 00/M03 A3015 RMK AO2 SLP229 T00001028 53013 $
KU42 
7nm S 
070315Z AUTO 34003KT 5SM OVC007 M02/M02 A3016 RMK AO1 T10251025
KTVY 
18nm W 
070315Z AUTO 00000KT 10SM OVC015 M02/M02 A3017 RMK AO2
TAF
KSLC 
4nm N 
070152Z 0702/0806 35005KT P6SM OVC010 FM070300 36005KT 5SM BR VCFG OVC010 FM070700 15005KT 2SM BR BCFG BKN007 OVC015 FM071700 35005KT 5SM BR VCFG SCT007 BKN015 FM071900 35004KT P6SM VCSH SCT015 BKN025 OVC050 FM080400 15005KT 5SM BR BKN015 OVC025
NOTAMs
Click for the latest NOTAMs
NOTAMs are issued by the DoD/FAA and will open in a separate window not controlled by AirNav.

 

 
 

Would you like to see your business listed on this page?

 If your business provides an interesting product or service to pilots, flight crews, aircraft, or users of the Kutv Channel Two Heliport, you should consider listing it here.  To start the listing process, click on the button below
 
Add a business
 

Other Pages about Kutv Channel Two Heliport

Update a link
 
Copyright © AirNav, LLC. All rights reserved. Privacy Policy  Contact